Weather History for KGMJ - November, 2012

Change the Weather History Date:

Wednesday, November 21, 2012

  Actual Average (KSLG) Record (KSLG)
Temperature  
Mean Temperature 54 °F -  
Max Temperature 75 °F 54 °F 73 °F (2012)
Min Temperature 33 °F 36 °F 17 °F (2000)
Degree Days  
Heating Degree Days 11    
Growing Degree Days 4 (Base 50)    
Moisture  
Dew Point 38 °F    
Average Humidity 64    
Maximum Humidity 100    
Minimum Humidity 22    
Precipitation  
Precipitation 0.00 in - - ()
Sea Level Pressure  
Sea Level Pressure 30.20 in    
Wind  
Wind Speed 2 mph (South)    
Max Wind Speed 12 mph    
Max Gust Speed 16 mph    
Visibility 9 miles    
Events      
Averages and records for this station are not official NWS values.
T = Trace of Precipitation, MM = Missing Value Source: NWS Daily Summary

Daily Weather History Graph

Daily Weather History Graph

Search for Another Location

Airport or City:

Trip Planner

Search our weather history database for the weather conditions in past years. The results will help you decide how hot, cold, wet, or windy it might be!

Date:

Astronomy

Nov. 21, 2012 Rise Set
Actual Time 7:03 AM CST 5:06 PM CST
Civil Twilight 6:35 AM CST 5:34 PM CST
Nautical Twilight 6:03 AM CST 6:05 PM CST
Astronomical Twilight 5:33 AM CST 6:36 PM CST
Moon 1:14 PM CST (11/21) 12:33 AM CST (11/21)
Length of Visible Light 10h 58m
Length of Day
10h 03m
First Quarter, 62% of the Moon is Illuminated
Nov 21
First Quarter
Nov 28
Full
Dec 6
Last Quarter
Dec 13
New
Dec 19
First Quarter

Hourly Weather History & Observations

Time (CST) Temp. Windchill Dew Point Humidity Pressure Visibility Wind Dir Wind Speed Gust Speed Precip Events Conditions
12:15 AM 39.2 °F - 39.2 °F 100% 30.25 in 10.0 mi Calm Calm - N/A   Clear
12:35 AM 41.0 °F - 41.0 °F 100% 30.25 in 10.0 mi Calm Calm - N/A   Clear
12:55 AM 37.4 °F - 37.4 °F 100% 30.25 in 7.0 mi Calm Calm - N/A   Clear
1:15 AM 39.2 °F - 39.2 °F 100% 30.26 in 10.0 mi Calm Calm - N/A   Clear
1:35 AM 37.4 °F - 37.4 °F 100% 30.26 in 7.0 mi Calm Calm - N/A   Clear
1:55 AM 35.6 °F - 35.6 °F 100% 30.26 in 7.0 mi Calm Calm - N/A   Clear
2:15 AM 35.6 °F - 35.6 °F 100% 30.26 in 7.0 mi Calm Calm - N/A   Clear
2:35 AM 35.6 °F - 35.6 °F 100% 30.26 in 5.0 mi Calm Calm - N/A   Clear
2:55 AM 35.6 °F - 35.6 °F 100% 30.25 in 5.0 mi Calm Calm - N/A   Clear
3:15 AM 35.6 °F - 35.6 °F 100% 30.25 in 7.0 mi Calm Calm - N/A   Clear
3:35 AM 37.4 °F - 37.4 °F 100% 30.25 in 7.0 mi Calm Calm - N/A   Clear
3:55 AM 35.6 °F - 35.6 °F 100% 30.25 in 7.0 mi Calm Calm - N/A   Clear
4:15 AM 35.6 °F - 35.6 °F 100% 30.25 in 7.0 mi Calm Calm - N/A   Clear
4:35 AM 35.6 °F - 35.6 °F 100% 30.25 in 7.0 mi Calm Calm - N/A   Clear
4:55 AM 35.6 °F - 35.6 °F 100% 30.25 in 5.0 mi Calm Calm - N/A   Clear
5:15 AM 35.6 °F - 35.6 °F 100% 30.26 in 5.0 mi Calm Calm - N/A   Clear
5:55 AM 35.6 °F - 35.6 °F 100% 30.26 in 5.0 mi Calm Calm - N/A   Clear
6:15 AM 35.6 °F - 35.6 °F 100% 30.26 in 4.0 mi Calm Calm - N/A   Clear
6:35 AM 33.8 °F 30.8 °F 33.8 °F 100% 30.26 in 5.0 mi East 3.5 mph - N/A   Clear
6:55 AM 35.6 °F - 35.6 °F 100% 30.26 in 5.0 mi Calm Calm - N/A   Clear
7:15 AM 35.6 °F - 35.6 °F 100% 30.27 in 4.0 mi Calm Calm - N/A   Clear
7:35 AM 35.6 °F 32.8 °F 35.6 °F 100% 30.27 in 4.0 mi East 3.5 mph - N/A   Clear
7:55 AM 37.4 °F - 37.4 °F 100% 30.27 in 5.0 mi Calm Calm - N/A   Clear
8:15 AM 41.0 °F - 41.0 °F 100% 30.27 in 7.0 mi Calm Calm - N/A   Clear
8:35 AM 42.8 °F - 42.8 °F 100% 30.28 in 7.0 mi Calm Calm - N/A   Clear
8:55 AM 44.6 °F - 44.6 °F 100% 30.28 in 10.0 mi Calm Calm - N/A   Clear
9:15 AM 46.4 °F - 46.4 °F 100% 30.28 in 10.0 mi Calm Calm - N/A   Clear
9:35 AM 50.0 °F - 48.2 °F 94% 30.29 in 10.0 mi Calm Calm - N/A   Clear
9:55 AM 53.6 °F - 50.0 °F 88% 30.28 in 10.0 mi Calm Calm - N/A   Clear
10:15 AM 59.0 °F - 50.0 °F 72% 30.28 in 10.0 mi Calm Calm - N/A   Clear
10:35 AM 62.6 °F - 50.0 °F 63% 30.28 in 10.0 mi SSW 3.5 mph - N/A   Clear
10:55 AM 68.0 °F - 41.0 °F 37% 30.27 in 10.0 mi South 6.9 mph - N/A   Clear
11:15 AM 68.0 °F - 41.0 °F 37% 30.26 in 10.0 mi South 5.8 mph - N/A   Clear
11:35 AM 69.8 °F - 39.2 °F 33% 30.25 in 10.0 mi South 4.6 mph - N/A   Clear
11:55 AM 71.6 °F - 37.4 °F 29% 30.23 in 10.0 mi South 8.1 mph - N/A   Clear
12:15 PM 71.6 °F - 37.4 °F 29% 30.23 in 10.0 mi SSW 5.8 mph - N/A   Clear
12:35 PM 73.4 °F - 37.4 °F 27% 30.21 in 10.0 mi South 6.9 mph - N/A   Clear
12:55 PM 73.4 °F - 35.6 °F 25% 30.20 in 10.0 mi South 5.8 mph - N/A   Clear
1:15 PM 73.4 °F - 35.6 °F 25% 30.20 in 10.0 mi SSE 6.9 mph - N/A   Clear
1:35 PM 75.2 °F - 33.8 °F 22% 30.18 in 10.0 mi South 6.9 mph - N/A   Clear
1:55 PM 75.2 °F - 35.6 °F 24% 30.17 in 10.0 mi South 8.1 mph - N/A   Clear
2:15 PM 75.2 °F - 35.6 °F 24% 30.16 in 10.0 mi SSE 6.9 mph - N/A   Clear
2:35 PM 75.2 °F - 35.6 °F 24% 30.15 in 10.0 mi South 6.9 mph - N/A   Clear
2:55 PM 75.2 °F - 35.6 °F 24% 30.14 in 10.0 mi South 6.9 mph - N/A   Clear
3:15 PM 75.2 °F - 35.6 °F 24% 30.14 in 10.0 mi South 9.2 mph - N/A   Clear
3:35 PM 75.2 °F - 35.6 °F 24% 30.14 in 10.0 mi SSW 6.9 mph - N/A   Clear
3:55 PM 73.4 °F - 35.6 °F 25% 30.14 in 10.0 mi SSW 9.2 mph - N/A   Clear
4:15 PM 71.6 °F - 35.6 °F 27% 30.14 in 10.0 mi SSW 8.1 mph - N/A   Clear
4:35 PM 69.8 °F - 37.4 °F 31% 30.14 in 10.0 mi SSW 5.8 mph - N/A   Clear
4:55 PM 68.0 °F - 35.6 °F 30% 30.13 in 10.0 mi South 5.8 mph - N/A   Clear
5:15 PM 66.2 °F - 35.6 °F 32% 30.13 in 10.0 mi South 5.8 mph - N/A   Clear
5:35 PM 64.4 °F - 35.6 °F 34% 30.13 in 10.0 mi South 5.8 mph - N/A   Clear
5:55 PM 62.6 °F - 35.6 °F 37% 30.13 in 10.0 mi South 5.8 mph - N/A   Clear
6:15 PM 60.8 °F - 35.6 °F 39% 30.13 in 10.0 mi Calm Calm - N/A   Clear
6:35 PM 59.0 °F - 35.6 °F 42% 30.13 in 10.0 mi Calm Calm - N/A   Clear
6:55 PM 55.4 °F - 37.4 °F 51% 30.13 in 10.0 mi Calm Calm - N/A   Clear
7:15 PM 55.4 °F - 37.4 °F 51% 30.13 in 10.0 mi SSE 6.9 mph - N/A   Clear
7:35 PM 60.8 °F - 37.4 °F 42% 30.13 in 10.0 mi SSE 6.9 mph - N/A   Clear
7:55 PM 59.0 °F - 37.4 °F 45% 30.13 in 10.0 mi SSE 6.9 mph - N/A   Clear
8:15 PM 57.2 °F - 37.4 °F 48% 30.13 in 10.0 mi SSE 6.9 mph - N/A   Clear
8:35 PM 55.4 °F - 37.4 °F 51% 30.13 in 10.0 mi SSE 6.9 mph - N/A   Clear
8:55 PM 55.4 °F - 37.4 °F 51% 30.12 in 10.0 mi SSE 5.8 mph - N/A   Clear
9:15 PM 55.4 °F - 37.4 °F 51% 30.12 in 10.0 mi SSE 6.9 mph - N/A   Clear
9:35 PM 57.2 °F - 37.4 °F 48% 30.12 in 10.0 mi SSE 8.1 mph - N/A   Clear
9:55 PM 57.2 °F - 39.2 °F 51% 30.12 in 10.0 mi SSE 8.1 mph - N/A   Clear
10:15 PM 57.2 °F - 39.2 °F 51% 30.11 in 10.0 mi SSE 10.4 mph - N/A   Clear
10:35 PM 57.2 °F - 39.2 °F 51% 30.10 in 10.0 mi SSE 11.5 mph 16.1 mph N/A   Clear
10:55 PM 57.2 °F - 39.2 °F 51% 30.10 in 10.0 mi SSE 10.4 mph 16.1 mph N/A   Clear
11:15 PM 55.4 °F - 39.2 °F 54% 30.10 in 10.0 mi SSE 9.2 mph - N/A   Clear
11:35 PM 55.4 °F - 39.2 °F 54% 30.09 in 10.0 mi SSE 10.4 mph - N/A   Clear
11:55 PM 57.2 °F - 39.2 °F 51% 30.09 in 10.0 mi SSE 9.2 mph - N/A   Clear